This demonstration page uses our WeatherBlox Daily Observations layout. Learn more.

Left ArrowRight Arrow

36.17497, -115.13722

Hourly Observations for March 25, 2019

Temp ( °F °C ) Dew Point ( °F °C ) Humidity (%) Winds ( mph kmh ) Pressure ( in mb ) Visibility ( mi km ) Precip ( " mm )
12:53 am 00:53 Clear 54 12.2 31 -0.6 42 42 NNW 7 11 30.21 1023 10 16 0.00 0.00
1:53 am 01:53 Clear 53 11.7 31 -0.6 43 43 NNW 6 9 30.21 1023 10 16 0.00 0.00
2:53 am 02:53 Clear 51 10.6 31 -0.6 46 46 NNW 3 6 30.21 1023 10 16 0.00 0.00
3:53 am 03:53 Clear 52 11.1 32 0 47 47 WNW 3 6 30.20 1023 10 16 0.00 0.00
4:53 am 04:53 Clear 50 10 32 0 50 50 N 5 7 30.20 1023 10 16 0.00 0.00
5:53 am 05:53 Clear 49 9.4 33 0.6 55 55 NNW 3 6 30.20 1023 10 16 0.00 0.00
6:53 am 06:53 Sunny 48 8.9 33 0.6 56 56 NNW 3 6 30.22 1024 10 16 0.00 0.00
7:53 am 07:53 Sunny 52 11.1 33 0.6 49 49 NNW 3 6 30.24 1024 10 16 0.00 0.00
8:53 am 08:53 Sunny 58 14.4 33 0.6 39 39 SE 3 6 30.24 1024 10 16 0.00 0.00
9:53 am 09:53 Sunny 62 16.7 31 -0.6 31 31 SSE 5 7 30.23 1024 10 16 0.00 0.00
10:53 am 10:53 Sunny 65 18.3 29 -1.7 26 26 ESE 7 11 30.23 1024 10 16 0.00 0.00
11:53 am 11:53 Sunny 68 20 28 -2.2 22 22 Calm 30.22 1023 10 16 0.00 0.00
12:53 pm 12:53 Sunny 70 21.1 24 -4.4 18 18 E 8 13 30.18 1022 10 16 0.00 0.00
1:53 pm 13:53 Sunny 72 22.2 24 -4.4 17 17 VRB 7 11 30.14 1021 10 16 0.00 0.00
2:53 pm 14:53 Sunny 73 22.8 23 -5 15 15 SE 10 17 30.11 1020 10 16 0.00 0.00
3:53 pm 15:53 Sunny 73 22.8 24 -4.4 16 16 ESE 6 9 30.09 1019 10 16 0.00 0.00
4:53 pm 16:53 Sunny 74 23.3 23 -5 15 15 ESE 5 7 30.07 1018 10 16 0.00 0.00
5:53 pm 17:53 Sunny 74 23.3 24 -4.4 15 15 E 5 7 30.05 1018 10 16 0.00 0.00
6:53 pm 18:53 Sunny 71 21.7 24 -4.4 17 17 ESE 7 11 30.05 1018 10 16 0.00 0.00
7:53 pm 19:53 Clear 69 20.6 23 -5 17 17 E 5 7 30.05 1018 10 16 0.00 0.00
8:53 pm 20:53 Clear 67 19.4 25 -3.9 20 20 NNW 3 6 30.06 1018 10 16 0.00 0.00
9:53 pm 21:53 Clear 63 17.2 29 -1.7 28 28 WNW 5 7 30.06 1018 10 16 0.00 0.00
10:53 pm 22:53 Clear 59 15 31 -0.6 35 35 NW 6 9 30.06 1018 10 16 0.00 0.00
11:53 pm 23:53 Clear 58 14.4 31 -0.6 36 36 NNW 6 9 30.05 1018 10 16 0.00 0.00

Powered by AerisWeather